IRIDIUM 23 [P] (24906 NORAD) Tracking and Keplerian Element Data

This shows tracking and keplerian element data for the satellite.

Feedback or suggestion? Click here.




ElementValue
Catalog24906
NameIRIDIUM 23 [P]
Epoch Orbit7903
Epoch Day86.87553626
Epoch Year2018
RAAN133.0244
Inclination86.3745
Eccentricity0.0036215
Argument of Perigee207.4806
Mean Anonmoly152.7376
Mean Motion16.44735229
Decay Rate0.19764642
L11 24906U 97043D 18086.87553626 .19764642 -20654-5 29789-3 0 9999
L22 24906 86.3745 133.0244 0036215 207.4806 152.7376 16.44735229 79030



Live tracking and technical data element details for IRIDIUM 23 [P] (NORAD 24906). IRIDIUM 23 [P] can be tracked NOW for your location showing map with azimuth and elevation plus other details from your city location.







IsCatalogInMostPopularTable: catalog: 24906, numindb: 446
Update: records affected: 1



GetName: 24906 IRIDIUM 23 [P]

Hit Count: updated at: Fri, 16 May 2025 11:17:58 GMT